Weather History for Ravenna, OH

Change the Weather History Date:

Thursday, July 25, 2013

  Actual Average (KCAK) Record (KCAK)
Temperature  
Mean Temperature 61 °F 72 °F  
Max Temperature 73 °F 82 °F 96 °F (1940)
Min Temperature 49 °F 62 °F 48 °F (1953)
Degree Days  
Heating Degree Days 4 0  
Month to date heating degree days 0  
Since 1 June heating degree days 49  
Since 1 July heating degree days 0  
Cooling Degree Days 0 7  
Month to date cooling degree days 175  
Year to date cooling degree days 352  
Since 1 June cooling degree days 310  
Growing Degree Days 11 (Base 50)    
Moisture  
Dew Point 50 °F    
Average Humidity 70    
Maximum Humidity 100    
Minimum Humidity 42    
Precipitation  
Precipitation 0.00 in 0.13 in 0.86 in (1999)
Month to date precipitation 3.31  
Year to date precipitation 22.87  
Snow  
Snow 0.00 in 0.00 in - ()
Month to date snowfall 0.0  
Since 1 June snowfall 0.0  
Since 1 July snowfall 0.0  
Snow Depth -    
Sea Level Pressure  
Sea Level Pressure 30.09 in    
Wind  
Wind Speed 5 mph (NE)    
Max Wind Speed 13 mph    
Max Gust Speed -    
Visibility 10 miles    
Events      
T = Trace of Precipitation, MM = Missing Value Source: NWS Daily Summary

Daily Weather History Graph

Daily Weather History Graph

Search for Another Location

Airport:

Trip Planner

Search our weather history database for the weather conditions in past years. The results will help you decide how hot, cold, wet, or windy it might be!

Date:

Astronomy

Jul. 25, 2013 Rise Set
Actual Time 6:14 AM EDT 8:48 PM EDT
Civil Twilight 5:42 AM EDT 9:20 PM EDT
Nautical Twilight 5:02 AM EDT 9:59 PM EDT
Astronomical Twilight 4:18 AM EDT 10:43 PM EDT
Moon 10:25 PM EDT (7/25) 9:44 AM EDT (7/25)
Length of Visible Light 15h 37m
Length of Day
14h 34m
Waning Gibbous, 88% of the Moon is Illuminated
Jul 25
Waning Gibbous
Jul 29
Last Quarter
Aug 6
New
Aug 14
First Quarter
Aug 20
Full

Hourly Weather History & Observations

Time (EDT) Temp. Dew Point Humidity Pressure Visibility Wind Dir Wind Speed Gust Speed Precip Events Conditions
12:14 AM 52.9 °F 53.1 °F 100% 30.05 in 10.0 mi NNE 3.5 mph - N/A   Clear
12:33 AM 53.2 °F 53.4 °F 100% 30.06 in 10.0 mi NNE 3.5 mph - N/A   Clear
12:53 AM 53.4 °F 53.2 °F 99% 30.06 in 10.0 mi NNE 3.5 mph - N/A   Clear
1:13 AM 53.2 °F 53.1 °F 99% 30.06 in 10.0 mi NE 3.5 mph - N/A   Clear
1:33 AM 52.9 °F 53.1 °F 100% 30.06 in 10.0 mi ENE 3.5 mph - N/A   Clear
1:54 AM - - N/A% 30.05 in 10.0 mi NE 3.5 mph - N/A   Clear
2:13 AM 51.8 °F 52.0 °F 100% 30.05 in 10.0 mi NE 3.5 mph - N/A   Clear
2:33 AM 51.8 °F 51.8 °F 100% 30.05 in 10.0 mi NE 3.5 mph - N/A   Clear
2:53 AM 52.2 °F 52.3 °F 100% 30.05 in 10.0 mi Calm Calm - N/A   Clear
3:14 AM 52.0 °F 52.2 °F 100% 30.05 in 10.0 mi Calm Calm - N/A   Clear
3:33 AM 51.6 °F 52.0 °F 100% 30.05 in 10.0 mi NE 3.5 mph - N/A   Clear
3:53 AM 51.4 °F 51.6 °F 100% 30.05 in 10.0 mi Calm Calm - N/A   Clear
4:14 AM 51.1 °F 51.3 °F 100% 30.05 in 10.0 mi NE 3.5 mph - N/A   Clear
4:33 AM 51.8 °F 51.8 °F 100% 30.06 in 10.0 mi Calm Calm - N/A   Clear
4:53 AM 51.3 °F 51.3 °F 100% 30.07 in 10.0 mi NE 3.5 mph - N/A   Clear
5:13 AM 51.3 °F 50.7 °F 98% 30.07 in 10.0 mi NE 3.5 mph - N/A   Clear
5:33 AM 50.4 °F 50.5 °F 100% 30.07 in 10.0 mi NE 4.6 mph - N/A   Clear
5:53 AM 50.0 °F 50.0 °F 100% 30.07 in 10.0 mi ENE 4.6 mph - N/A   Clear
6:13 AM 49.6 °F 50.0 °F 100% 30.07 in 10.0 mi ENE 5.8 mph - N/A   Clear
6:33 AM 50.2 °F 50.4 °F 100% 30.07 in 10.0 mi ENE 6.9 mph - N/A   Clear
6:53 AM 51.4 °F 50.9 °F 98% 30.07 in 10.0 mi ENE 4.6 mph - N/A   Clear
7:14 AM 53.2 °F 51.6 °F 94% 30.08 in 10.0 mi ENE 4.6 mph - N/A   Clear
7:33 AM 54.7 °F 52.2 °F 91% 30.09 in 10.0 mi NE 5.8 mph - N/A   Clear
7:53 AM 56.5 °F 49.6 °F 78% 30.09 in 10.0 mi NE 8.1 mph - N/A   Clear
8:13 AM 57.4 °F 50.5 °F 78% 30.10 in 10.0 mi ENE 6.9 mph - N/A   Clear
8:33 AM 58.6 °F 50.5 °F 74% 30.10 in 10.0 mi East 5.8 mph - N/A   Clear
8:54 AM 59.2 °F 50.0 °F 72% 30.10 in 10.0 mi ENE 6.9 mph - N/A   Clear
9:13 AM 60.1 °F 50.0 °F 69% 30.11 in 10.0 mi East 6.9 mph - N/A   Clear
9:33 AM 61.3 °F 50.2 °F 67% 30.11 in 10.0 mi East 8.1 mph - N/A   Clear
9:53 AM 62.1 °F 50.7 °F 66% 30.11 in 10.0 mi East 9.2 mph - N/A   Clear
10:14 AM 63.5 °F 50.7 °F 63% 30.11 in 10.0 mi ESE 11.5 mph - N/A   Clear
10:33 AM 64.2 °F 49.3 °F 58% 30.11 in 10.0 mi ENE 12.7 mph - N/A   Clear
10:53 AM 65.3 °F 48.4 °F 54% 30.11 in 10.0 mi East 10.4 mph - N/A   Clear
11:14 AM 66.2 °F 48.9 °F 54% 30.11 in 10.0 mi East 9.2 mph - N/A   Clear
11:33 AM 66.6 °F 49.1 °F 53% 30.11 in 10.0 mi ENE 6.9 mph - N/A   Clear
11:53 AM 67.6 °F 48.6 °F 50% 30.11 in 10.0 mi ENE 8.1 mph - N/A   Clear
12:13 PM 68.0 °F 47.5 °F 48% 30.11 in 10.0 mi NE 8.1 mph - N/A   Clear
12:33 PM 68.2 °F 47.8 °F 48% 30.11 in 10.0 mi East 6.9 mph - N/A   Clear
12:54 PM 69.3 °F 48.6 °F 48% 30.11 in 10.0 mi East 8.1 mph - N/A   Clear
1:13 PM 69.3 °F 49.6 °F 50% 30.10 in 10.0 mi ENE 10.4 mph - N/A   Clear
1:33 PM 69.6 °F 48.0 °F 46% 30.10 in 10.0 mi North 9.2 mph - N/A   Clear
1:53 PM 71.2 °F 48.9 °F 45% 30.10 in 10.0 mi NE 8.1 mph - N/A   Clear
2:14 PM 70.7 °F 48.0 °F 44% 30.10 in 10.0 mi NE 6.9 mph - N/A   Clear
2:33 PM 71.8 °F 49.6 °F 45% 30.10 in 10.0 mi North 8.1 mph - N/A   Clear
2:53 PM 72.5 °F 51.1 °F 47% 30.10 in 10.0 mi ENE 4.6 mph - N/A   Clear
3:14 PM 72.5 °F 49.8 °F 45% 30.10 in 10.0 mi East 6.9 mph - N/A   Clear
3:33 PM 73.6 °F 51.4 °F 46% 30.10 in 10.0 mi ENE 8.1 mph - N/A   Clear
3:53 PM 73.0 °F 48.4 °F 42% 30.10 in 10.0 mi ENE 6.9 mph - N/A   Clear
4:13 PM 73.0 °F 48.7 °F 42% 30.10 in 10.0 mi NE 8.1 mph - N/A   Clear
4:33 PM 73.2 °F 48.7 °F 42% 30.10 in 10.0 mi NE 5.8 mph - N/A   Clear
4:53 PM 73.4 °F 50.0 °F 44% 30.10 in 10.0 mi East 3.5 mph - N/A   Clear
5:13 PM 73.8 °F 50.7 °F 44% 30.10 in 10.0 mi ENE 8.1 mph - N/A   Clear
5:33 PM 73.4 °F 50.0 °F 44% 30.10 in 10.0 mi East 5.8 mph - N/A   Clear
5:53 PM 73.2 °F 49.1 °F 42% 30.09 in 10.0 mi NE 5.8 mph - N/A   Clear
6:13 PM 73.2 °F 49.6 °F 43% 30.09 in 10.0 mi North 5.8 mph - N/A   Clear
6:33 PM 72.5 °F 50.9 °F 47% 30.09 in 10.0 mi ENE 6.9 mph - N/A   Clear
6:53 PM 72.0 °F 49.6 °F 45% 30.09 in 10.0 mi ENE 6.9 mph - N/A   Clear
7:13 PM 70.9 °F 51.4 °F 50% 30.09 in 10.0 mi NE 8.1 mph - N/A   Clear
7:33 PM 69.8 °F 50.4 °F 50% 30.10 in 10.0 mi NNE 3.5 mph - N/A   Clear
7:53 PM 68.7 °F 50.7 °F 53% 30.10 in 10.0 mi North 4.6 mph - N/A   Clear
8:13 PM 67.3 °F 50.0 °F 54% 30.10 in 10.0 mi NNE 4.6 mph - N/A   Clear
8:33 PM 65.5 °F 50.0 °F 57% 30.10 in 10.0 mi NNE 4.6 mph - N/A   Clear
8:53 PM 64.4 °F 50.0 °F 59% 30.10 in 10.0 mi NNE 3.5 mph - N/A   Clear
9:13 PM 61.2 °F 52.9 °F 74% 30.11 in 10.0 mi NNE 3.5 mph - N/A   Clear
9:33 PM 62.4 °F 49.5 °F 63% 30.12 in 10.0 mi NNE 4.6 mph - N/A   Clear
9:53 PM 61.7 °F 49.6 °F 65% 30.13 in 10.0 mi NNE 4.6 mph - N/A   Clear
10:13 PM 58.3 °F 52.3 °F 81% 30.12 in 10.0 mi NE 4.6 mph - N/A   Clear
10:33 PM 56.8 °F 53.2 °F 88% 30.12 in 10.0 mi NE 3.5 mph - N/A   Clear
10:54 PM 56.7 °F 52.0 °F 84% 30.11 in 10.0 mi NE 3.5 mph - N/A   Clear
11:13 PM 57.4 °F 50.9 °F 79% 30.12 in 10.0 mi Calm Calm - N/A   Clear
11:33 PM 56.7 °F 51.1 °F 82% 30.12 in 10.0 mi Calm Calm - N/A   Clear
11:53 PM 58.3 °F 50.2 °F 74% 30.12 in 10.0 mi Calm Calm - N/A   Clear